Weather History for New Bern, NC

Change the Weather History Date:

Tuesday, April 1, 2014

  Actual Average Record
Temperature  
Mean Temperature 59 °F 58 °F  
Max Temperature 80 °F 70 °F 90 °F (1974)
Min Temperature 37 °F 46 °F 30 °F (1950)
Degree Days  
Heating Degree Days 6 8  
Month to date heating degree days 6 8  
Since 1 July heating degree days 2538 2523  
Cooling Degree Days 0 1  
Month to date cooling degree days 0 1  
Year to date cooling degree days 8 15  
Growing Degree Days 8 (Base 50)    
Moisture  
Dew Point 38 °F    
Average Humidity 52    
Maximum Humidity 86    
Minimum Humidity 18    
Precipitation  
Precipitation 0.00 in 0.12 in 2.16 in (1973)
Month to date precipitation 0.00 0.12  
Year to date precipitation 11.13 12.19  
Snow  
Snow 0.00 in - - ()
Month to date snowfall 0.0  
Since 1 July snowfall 14.0  
Snow Depth 0.00 in    
Sea Level Pressure  
Sea Level Pressure 30.11 in    
Wind  
Wind Speed 4 mph (SSW)    
Max Wind Speed 14 mph    
Max Gust Speed 18 mph    
Visibility 10 miles    
Events      
T = Trace of Precipitation, MM = Missing Value Source: NWS Daily Summary

Daily Weather History Graph

Daily Weather History Graph

Search for Another Location

Airport:

Trip Planner

Search our weather history database for the weather conditions in past years. The results will help you decide how hot, cold, wet, or windy it might be!

Date:

Astronomy

Apr. 01, 2014 Rise Set
Actual Time 6:55 AM EDT 7:29 PM EDT
Civil Twilight 6:29 AM EDT 7:55 PM EDT
Nautical Twilight 5:59 AM EDT 8:25 PM EDT
Astronomical Twilight 5:28 AM EDT 8:55 PM EDT
Moon 8:00 AM EDT (4/1) 9:44 PM EDT (4/1)
Length of Visible Light 13h 25m
Length of Day
12h 34m
Waxing Crescent, 4% of the Moon is Illuminated
Apr 1
Waxing Crescent
Apr 7
First Quarter
Apr 15
Full
Apr 22
Last Quarter
Apr 29
New

Hourly Weather History & Observations

Time (EDT) Temp. Dew Point Humidity Pressure Visibility Wind Dir Wind Speed Gust Speed Precip Events Conditions
12:54 AM 44.1 °F 37.9 °F 79% 30.12 in 10.0 mi Calm Calm - N/A   Clear
1:54 AM 43.0 °F 37.0 °F 80% 30.12 in 10.0 mi Calm Calm - N/A   Clear
2:54 AM 41.0 °F 37.0 °F 86% 30.12 in 10.0 mi Calm Calm - N/A   Clear
3:54 AM 41.0 °F 37.9 °F 89% 30.12 in 10.0 mi Calm Calm - N/A   Clear
4:54 AM 39.0 °F 36.0 °F 89% 30.11 in 10.0 mi Calm Calm - N/A   Clear
5:54 AM 39.9 °F 36.0 °F 86% 30.12 in 10.0 mi Calm Calm - N/A   Clear
6:54 AM 37.9 °F 34.0 °F 86% 30.14 in 10.0 mi Calm Calm - N/A   Clear
7:54 AM 44.1 °F 39.0 °F 82% 30.16 in 10.0 mi Calm Calm - N/A   Clear
8:54 AM 55.0 °F 43.0 °F 64% 30.16 in 10.0 mi Calm Calm - N/A   Clear
9:54 AM 66.0 °F 36.0 °F 33% 30.17 in 10.0 mi South 4.6 mph - N/A   Clear
10:54 AM 71.1 °F 32.0 °F 24% 30.17 in 10.0 mi Variable 3.5 mph - N/A   Clear
11:54 AM 75.0 °F 30.9 °F 20% 30.15 in 10.0 mi SSW 6.9 mph - N/A   Clear
12:54 PM 78.1 °F 33.1 °F 19% 30.12 in 10.0 mi SW 5.8 mph - N/A   Clear
1:54 PM 78.1 °F 35.1 °F 21% 30.11 in 10.0 mi West 8.1 mph - N/A   Clear
2:54 PM 77.0 °F 33.1 °F 20% 30.08 in 10.0 mi West 5.8 mph - N/A   Clear
3:54 PM 80.1 °F 34.0 °F 19% 30.05 in 10.0 mi West 10.4 mph - N/A   Clear
4:54 PM 79.0 °F 37.9 °F 23% 30.04 in 10.0 mi SW 10.4 mph 16.1 mph N/A   Clear
5:54 PM 75.9 °F 37.0 °F 24% 30.04 in 10.0 mi SSW 10.4 mph - N/A   Clear
6:54 PM 73.0 °F 39.0 °F 29% 30.05 in 10.0 mi South 5.8 mph - N/A   Clear
7:54 PM 66.0 °F 42.1 °F 42% 30.07 in 10.0 mi South 6.9 mph - N/A   Clear
8:54 PM 62.1 °F 45.0 °F 53% 30.09 in 10.0 mi South 5.8 mph - N/A   Clear
9:54 PM 59.0 °F 46.9 °F 64% 30.10 in 10.0 mi SSW 4.6 mph - N/A   Clear
10:54 PM 55.9 °F 46.9 °F 72% 30.09 in 10.0 mi South 3.5 mph - N/A   Clear
11:54 PM 57.9 °F 46.0 °F 65% 30.09 in 10.0 mi SSW 5.8 mph - N/A   Clear